Miscellaneous Local Product
Issued by NWS Hastings, NE

Home | Current Version | Previous Version | Graphics & Text | Print | Product List | Glossary On
Versions: 1 2 3 4 5 6 7 8 9 10 11 12 13 14 15 16 17 18 19 20 21 22 23 24 25 26 27 28 29 30 31 32 33 34 35 36 37 38 39 40 41 42 43 44 45 46 47 48 49 50
000
AXUS43 KGID 192202
MISGRI

GID CWA HOURLY WEATHER ROUNDUP
NATIONAL WEATHER SERVICE HASTINGS NE
500 PM CDT TUE AUG 19 2014

NOTE: "FAIR" INDICATES FEW OR NO CLOUDS BELOW 12,000 FEET WITH NO
SIGNIFICANT WEATHER AND/OR OBSTRUCTIONS TO VISIBILITY.

...SOUTH CENTRAL NEBRASKA...

CITY           SKY/WX    TMP DP  RH WIND       PRES   REMARKS
GRAND ISLAND   MOSUNNY   88  71  57 SE12      29.81F HX  94
HASTINGS       SUNNY     87  66  49 SE8       29.80F
KEARNEY        MOSUNNY   88  68  51 SE14      29.81F HX  91
ORD            MOSUNNY   84  66  54 SE10      29.80S
AURORA         SUNNY     88  69  53 S8        29.81F HX  92
LEXINGTON      MOSUNNY   87  70  57 SE10G16   29.81F HX  91
HOLDREGE       MOSUNNY   89  63  41 S13       29.81F
HEBRON         SUNNY     90  65  44 S10       29.80F HX  92

...NEBRASKA PANHANDLE...

CITY           SKY/WX    TMP DP  RH WIND       PRES   REMARKS
CHADRON        PTSUNNY   96  44  16 SE5       29.73F HX  92
ALLIANCE       MOSUNNY   91  52  26 S15       29.80F
SCOTTSBLUFF    PTSUNNY   95  50  21 NW10      29.78F HX  92
SIDNEY         MOSUNNY   93  52  24 S17G23    29.84F HX  90

...WESTERN AND NORTH CENTRAL NEBRASKA...

CITY           SKY/WX    TMP DP  RH WIND       PRES   REMARKS
VALENTINE      SUNNY     91  59  33 SE15      29.79S HX  90
AINSWORTH      SUNNY     86  60  40 SE14      29.80S
ONEILL         MOSUNNY   86  63  45 SE12      29.81S
BROKEN BOW     MOSUNNY   87  67  51 SE14      29.81F HX  90
IMPERIAL       SUNNY     92  55  28 SE15      29.79F HX  90
NORTH PLATTE   MOSUNNY   87  66  49 E20G25    29.78F
MCCOOK         MOSUNNY   95  60  31 S10G21    29.77F HX  95

...EASTERN NEBRASKA...

CITY           SKY/WX    TMP DP  RH WIND       PRES   REMARKS
NORFOLK        SUNNY     86  60  41 S3        29.80F
SO SIOUX CITY  SUNNY     85  64  49 VRB3      29.79F
TEKAMAH        SUNNY     87  64  46 CALM      29.78F
COLUMBUS       SUNNY     84  66  54 SE7       29.81S
ALBION         SUNNY     84  63  48 SE10      29.81F
OMAHA EPPLEY   MOSUNNY   89  61  38 E5        29.79S
OFFUTT AFB     SUNNY     88  64  44 S6        29.79S
MILLARD        SUNNY     89  62  40 CALM      29.79S HX  90
LINCOLN        SUNNY     91  65  41 NE9       29.79F HX  93
NEBRASKA CITY  SUNNY     86  65  50 SE6       29.81S
BEATRICE       SUNNY     91  69  48 CALM      29.79F HX  95
FALLS CITY     SUNNY     90  73  57 SE8       29.79F HX  98

...NORTHERN KANSAS...

CITY           SKY/WX    TMP DP  RH WIND       PRES   REMARKS
GOODLAND       SUNNY     96  50  20 S12       29.80F HX  93
HILL CITY      MOSUNNY   97  59  28 SE15G23   29.76F HX  96
NORTON         CLEAR     91  54  27 SE13      29.77F
PHILLIPSBURG   SUNNY     91  59  33 SE9       29.78S HAZE    HX  90
BELOIT         SUNNY     91  63  38 SE10      29.77F HX  92
HAYS           MOSUNNY   97  59  28 S24G31    29.77F HX  96
RUSSELL        PTSUNNY   95  60  31 S17G24    29.76F HX  95
CONCORDIA      SUNNY     90  67  46 S8        29.79F HX  93
SALINA         MOSUNNY   95  63  34 S13       29.77F HX  96
TOPEKA         SUNNY     96  64  34 SW6       29.78F HX  98



USA.gov is the U.S. government's official web portal to all federal, state and local government web resources and services.